Probability
0 0 0 0 0 0 0 0 0 0 0 0 0 0 0 0 0 0 0 0 1 2 3 3 3 4 5 6 7 6 6 6 6 6 5 4 3 2 1 0 0 0 0 0 0 0 0 0 0
0 0 0 0 0 0 0 0 0 0 0 0 0 0 0 0 0 0 0 0 0 1 3 3 3 4 6 7 7 6 6 5 5 5 5 4 3 1 0 0 0 0 0 0 0 0 0 0 0
0 0 0 0 0 0 0 0 0 0 0 0 0 0 0 0 0 0 0 0 0 1 2 3 3 4 5 6 6 6 6 4 4 4 4 5 4 1 0 0 0 0 0 0 0 0 0 0 0
0 0 0 0 0 0 0 0 0 0 0 0 0 0 0 0 0 0 0 0 0 0 1 2 3 3 4 4 4 5 5 4 3 3 3 4 3 1 0 0 0 0 0 0 0 0 0 0 0
0 0 0 0 0 0 0 0 0 0 0 0 0 0 0 0 0 0 0 0 0 0 0 1 2 3 3 3 3 4 4 3 3 3 3 3 3 1 0 0 0 0 0 0 0 0 0 0 0
0 0 0 0 0 0 0 0 0 0 0 0 0 0 0 0 0 0 0 0 0 0 0 0 1 3 3 3 3 3 3 3 3 3 3 3 2 1 0 0 0 0 0 0 0 0 0 0 0
0 0 0 0 0 0 0 0 0 0 0 0 0 0 0 0 0 0 0 0 0 0 0 0 1 2 3 3 3 3 3 3 3 3 3 2 1 1 0 0 0 0 0 0 0 0 0 0 0
0 0 0 0 0 0 0 0 0 0 0 0 0 0 0 0 0 0 0 0 0 0 0 0 1 2 3 3 3 3 3 3 3 3 2 1 0 0 0 0 0 0 0 0 0 0 0 0 0
0 0 0 0 0 0 0 0 0 0 0 0 0 0 1 1 1 0 0 0 0 0 0 0 0 1 3 3 3 3 3 3 2 2 1 0 0 0 0 0 0 0 0 0 0 0 0 0 0
0 0 0 0 0 0 0 0 0 0 0 0 0 0 1 2 1 0 0 0 0 0 0 0 0 1 2 3 3 3 3 2 2 2 1 0 0 0 0 0 0 0 0 0 0 0 0 0 0
0 0 0 0 0 0 0 0 0 0 0 0 0 0 1 1 1 0 0 0 0 0 0 0 0 1 2 3 3 3 3 2 1 2 1 0 0 0 0 0 0 0 0 0 0 0 0 0 0
0 0 0 0 0 0 0 0 0 0 0 0 0 0 0 1 1 0 0 0 0 0 0 0 0 1 2 3 3 3 3 2 1 1 1 0 0 0 0 0 0 0 0 0 0 0 0 0 0
0 0 0 0 0 0 0 0 0 0 0 0 0 0 0 0 0 0 0 0 0 0 0 0 0 1 2 3 3 3 3 3 1 0 0 0 0 0 0 0 0 0 0 0 0 0 0 0 0
0 0 0 0 0 0 0 0 0 0 0 0 0 0 0 0 0 0 0 0 0 0 0 0 0 1 2 3 3 3 3 3 2 1 0 0 0 0 0 0 0 0 0 0 0 0 0 0 0
0 0 0 0 0 0 0 0 0 0 0 0 0 0 0 0 0 0 0 0 0 0 0 0 0 1 2 3 3 3 3 3 2 1 0 0 0 0 0 0 0 0 0 0 0 0 0 0 0
0 0 0 0 0 0 0 0 0 0 0 0 0 0 0 0 0 0 0 0 0 0 0 0 0 1 2 3 3 3 2 1 1 1 0 0 0 0 0 0 0 0 0 0 0 0 0 0 0
0 0 0 0 0 0 0 0 0 0 0 0 0 0 0 0 0 0 0 0 0 0 0 0 0 0 1 2 2 2 1 0 0 0 0 0 0 0 0 0 0 0 0 0 0 0 0 0 0
0 0 0 0 0 0 0 0 0 0 0 0 0 0 0 0 0 0 0 0 0 0 0 0 0 0 0 1 1 1 0 0 0 0 0 0 0 0 0 0 0 0 0 0 0 0 0 0 0
0 0 0 0 0 0 0 0 0 0 0 0 0 0 0 0 0 0 0 0 0 0 0 0 0 0 0 0 0 0 0 0 0 0 0 0 0 0 0 0 0 0 0 0 0 0 0 0 0
0 0 0 0 0 0 0 0 0 0 0 0 0 0 0 0 0 0 0 0 0 0 0 0 0 0 0 0 0 0 0 0 0 0 0 0 0 0 0 0 0 0 0 0 0 0 0 0 0
0 0 0 0 0 0 0 0 0 0 0 0 0 0 0 0 0 0 0 0 0 0 0 0 0 0 0 0 0 0 0 0 0 0 0 0 0 0 0 0 0 0 0 0 0 0 0 0 0
0 0 0 0 0 0 0 0 0 0 0 0 0 0 0 0 0 0 0 0 0 0 0 0 0 0 0 0 0 0 0 0 0 0 0 0 0 0 0 0 0 0 0 0 0 0 0 0 0
0 0 0 0 0 0 0 0 0 0 0 0 0 0 0 0 0 0 0 0 0 0 0 0 0 0 0 0 0 0 0 0 0 0 0 0 0 0 0 0 0 0 0 0 0 0 0 0 0
0 0 0 0 0 0 0 0 0 0 0 0 0 0 0 0 0 0 0 0 0 0 0 0 0 0 0 0 0 0 0 0 0 0 0 0 0 0 0 0 0 0 0 0 0 0 0 0 0
0 0 0 0 0 0 0 0 0 0 0 0 0 0 0 0 0 0 0 0 0 0 0 0 0 0 0 0 0 0 0 0 0 0 0 0 0 0 0 0 0 0 0 0 0 0 0 0 0
0 0 0 0 0 0 0 0 0 0 0 0 0 0 0 0 0 0 0 0 0 0 0 0 0 0 0 0 0 0 0 0 0 0 0 0 0 0 0 1 0 0 0 0 0 0 0 0 0
0 0 0 0 0 0 0 0 0 0 0 0 0 0 0 0 0 0 0 0 0 0 0 0 0 0 0 0 0 0 0 0 0 0 0 0 0 0 0 0 0 0 0 0 0 0 0 0 0
0 0 0 0 0 0 0 0 0 0 0 0 0 0 0 0 0 0 0 0 0 0 0 0 0 0 0 0 0 0 0 0 0 0 0 0 0 0 0 0 0 0 0 0 0 0 0 0 0
0 0 0 0 0 0 0 0 0 0 0 0 0 0 0 0 0 0 0 0 0 0 0 0 0 0 0 0 0 0 0 0 0 0 0 0 0 0 0 0 0 0 0 0 0 0 0 0 0
0 0 0 0 0 0 0 0 0 0 0 0 0 0 0 0 0 0 0 0 0 0 0 0 0 0 0 0 0 0 0 0 0 0 0 0 0 0 0 0 0 0 0 0 0 0 0 0 0
Wind_Speed
7 5 2 4 5 3 2 4 2 1 1 0 2 6 7 4 2 3 1 4 6 7 7 8 9 10 10 10 10 10 9 9 10 10 10 10 10 10 9 9 9 9 10 10 10 11 11 11 11
3 3 4 5 4 1 4 4 3 2 2 2 3 5 6 3 2 4 2 3 6 7 6 7 9 10 10 10 10 9 9 9 9 9 9 9 9 9 9 9 8 9 9 10 10 10 10 10 10
3 2 4 4 3 5 4 3 3 1 0 1 3 4 4 3 2 3 3 5 6 6 5 6 9 10 10 10 10 9 9 9 9 9 9 9 9 9 8 8 8 9 9 9 9 9 9 9 10
3 4 4 3 3 4 4 3 2 1 1 2 4 4 2 1 2 3 5 7 7 5 4 6 9 10 10 10 10 9 9 9 9 9 8 8 8 8 8 8 8 8 8 9 9 9 9 9 9
4 4 3 0 4 4 3 3 2 1 1 1 3 4 2 2 2 6 7 7 7 5 4 5 8 9 10 10 9 9 8 8 8 8 8 8 8 8 8 7 7 8 8 8 8 8 8 8 8
4 4 3 3 4 3 3 2 1 1 1 1 3 4 2 1 4 5 5 6 6 6 4 4 6 7 8 9 9 8 8 8 8 8 8 7 7 7 7 7 7 7 8 7 8 8 8 7 8
4 4 3 3 3 2 3 1 1 1 1 1 3 5 2 1 2 4 5 5 5 5 5 3 3 5 7 7 7 7 7 7 7 7 7 7 6 6 6 6 6 6 7 7 7 7 7 7 7
4 3 1 2 3 3 2 1 0 1 1 0 2 5 4 4 3 4 4 5 4 4 4 3 2 3 4 4 6 6 6 7 7 7 7 6 6 5 5 4 5 6 6 6 6 6 6 6 7
3 3 3 3 3 3 2 1 2 1 2 1 2 2 3 6 6 5 4 3 3 3 2 3 2 3 3 3 4 5 5 6 5 5 6 5 3 2 3 3 4 5 5 5 6 6 6 5 5
4 3 4 3 3 2 1 1 1 1 1 0 2 2 4 6 7 6 5 5 4 3 2 2 2 3 3 3 3 2 2 3 3 3 3 2 2 2 2 3 4 4 4 5 5 5 5 4 2
3 4 3 2 2 1 1 1 1 2 2 4 4 4 4 5 5 6 6 5 5 4 3 2 3 3 4 3 2 2 1 2 2 3 3 2 2 2 2 1 2 2 3 2 3 3 2 2 1
2 2 3 2 1 1 2 2 2 3 5 3 4 6 6 7 8 7 7 5 4 4 4 3 3 3 4 3 3 2 2 2 2 2 3 3 2 2 1 1 1 1 1 1 1 1 1 2 2
2 2 2 2 2 2 2 3 3 4 5 2 2 5 6 7 6 6 5 4 4 4 4 3 3 4 4 4 3 3 2 2 2 2 2 3 3 2 2 1 1 1 1 1 2 1 1 2 1
2 2 2 2 2 2 2 4 2 7 4 2 3 5 6 7 7 5 4 5 5 4 4 3 3 4 4 4 3 3 3 3 2 2 3 3 3 3 2 2 1 1 1 1 1 2 2 1 1
1 1 4 3 3 2 1 6 6 7 2 3 4 5 5 5 5 6 6 6 6 5 4 4 4 4 4 4 3 3 2 3 2 2 2 3 3 3 3 2 2 1 1 2 2 1 1 1 1
1 1 3 4 2 2 3 9 7 4 2 4 4 4 4 5 5 5 5 5 5 5 5 5 4 4 4 4 3 2 2 3 2 2 2 3 3 3 3 2 2 1 2 2 2 2 1 1 1
1 2 4 4 2 2 4 8 7 3 3 5 5 5 5 5 5 4 4 5 5 6 5 5 4 5 5 4 3 3 2 2 2 2 2 3 3 4 3 3 2 2 2 2 2 1 2 2 1
4 4 4 5 3 2 5 9 9 5 4 7 6 5 5 5 6 5 5 4 4 5 4 5 5 4 4 3 2 2 2 2 2 2 2 3 3 4 3 3 3 3 2 2 2 2 1 1 1
4 3 5 5 2 2 7 11 11 8 6 7 7 6 6 7 5 4 4 4 3 4 4 4 5 4 4 3 3 3 3 2 2 2 2 3 3 4 4 3 3 3 3 3 3 2 2 1 1
3 4 4 4 2 3 6 11 10 8 8 8 8 8 7 5 3 3 3 3 4 4 5 5 5 4 4 3 3 2 2 2 2 2 2 3 3 4 4 4 4 3 3 3 4 3 2 1 1
4 6 5 4 4 3 4 9 6 5 4 5 6 6 6 6 6 4 4 4 4 5 5 5 5 4 4 3 2 2 1 1 1 2 2 3 3 3 3 4 4 4 4 4 5 5 5 3 2
6 4 4 3 1 4 0 6 8 4 5 5 6 5 5 5 5 4 4 4 4 5 4 4 4 4 4 4 4 4 4 4 4 2 2 2 3 4 4 4 4 4 4 4 5 5 4 4 3
5 2 2 2 2 3 2 3 11 3 5 6 6 6 5 5 5 5 5 5 4 4 4 4 4 3 3 4 4 4 3 3 1 2 2 2 2 3 3 4 4 4 4 4 4 4 4 4 4
2 2 2 3 2 4 6 5 9 4 6 4 4 5 5 4 4 4 3 3 3 3 3 3 4 3 3 3 3 4 4 3 3 3 3 3 2 2 3 3 4 4 4 4 5 5 5 5 4
3 4 2 3 2 7 3 5 11 6 5 5 5 5 5 4 4 3 3 3 3 3 3 3 4 3 3 3 3 3 4 4 5 4 4 3 2 3 4 4 4 4 4 4 4 4 5 5 5
5 6 7 6 5 5 2 7 8 4 3 3 4 3 3 3 3 4 4 4 3 3 3 3 4 3 3 3 3 3 2 3 3 4 3 4 3 4 3 4 4 4 5 5 4 4 5 4 5
4 4 4 4 1 3 6 6 8 3 2 2 2 2 3 3 3 3 2 3 3 3 3 4 4 3 2 2 2 2 2 2 3 3 3 3 3 3 3 4 4 4 5 5 5 4 5 5 5
3 4 4 4 4 5 6 5 6 4 4 3 3 3 3 2 2 2 2 2 2 2 2 2 3 3 2 2 2 2 2 3 2 2 4 4 3 3 3 4 4 4 5 5 5 4 4 5 5
3 3 3 3 4 5 4 8 5 6 5 4 5 4 3 3 2 2 1 1 1 1 1 2 1 1 1 2 2 2 2 2 2 2 3 3 3 3 4 4 5 5 5 5 5 5 5 6 5
4 5 6 5 5 4 4 9 3 2 2 2 3 2 2 2 1 1 1 1 1 2 2 2 2 2 2 2 1 2 2 1 2 2 2 2 3 3 4 4 4 5 5 5 6 6 6 6 6
Wind_Direction
333 333 35 51 58 58 239 251 231 258 46 32 85 94 100 97 121 149 136 131 133 144 150 148 144 140 134 128 125 120 116 115 116 113 111 109 107 105 102 98 95 94 93 90 88 86 84 83 82
332 352 51 61 97 163 255 253 233 236 186 140 82 88 88 89 86 109 112 135 134 142 143 146 144 142 136 132 127 122 118 117 116 114 112 112 110 106 103 100 95 95 93 92 90 89 87 84 82
331 50 77 84 140 187 220 242 210 237 237 107 77 64 99 132 137 148 159 144 128 132 139 146 143 142 139 136 131 126 122 119 116 114 111 110 110 107 105 103 100 98 96 95 93 91 88 85 84
48 51 59 90 210 223 212 228 210 120 18 56 103 83 68 45 167 156 137 132 124 125 131 146 143 142 139 137 133 130 127 122 118 115 113 109 110 107 105 107 106 103 100 99 96 93 91 87 84
62 80 82 188 238 247 245 242 218 169 178 70 110 116 113 349 100 120 128 128 125 122 121 141 142 143 142 139 137 133 129 125 122 118 115 115 111 109 107 109 111 110 104 99 97 97 95 91 88
64 76 122 213 235 251 279 282 226 179 162 80 107 124 146 107 113 125 126 125 128 128 119 126 140 140 141 141 140 136 131 128 125 121 116 116 115 113 111 110 113 116 112 104 99 97 99 96 90
109 116 177 203 222 246 271 294 195 169 136 207 138 127 156 214 151 133 121 121 120 124 123 120 142 141 137 137 138 136 133 129 127 123 119 115 112 111 106 105 110 117 118 114 108 103 99 97 89
126 117 184 209 204 236 273 260 199 170 176 344 106 142 190 201 157 115 106 109 114 116 127 130 143 140 135 136 135 132 130 128 126 123 115 110 112 112 108 105 112 113 113 115 114 108 102 95 86
101 101 202 210 194 230 299 335 337 346 103 50 51 154 180 144 131 115 105 97 117 124 136 129 132 137 135 137 137 132 129 126 123 121 116 110 103 105 110 104 109 112 110 113 117 107 101 89 82
103 165 215 216 192 207 294 297 274 35 54 71 47 46 112 137 146 150 155 164 168 166 157 142 140 144 137 136 126 126 123 125 116 113 118 112 105 103 102 105 99 98 100 104 111 102 87 80 68
144 191 217 244 242 233 254 290 283 163 235 217 196 177 162 156 163 173 179 181 183 173 167 166 156 155 147 140 134 127 122 120 114 117 121 112 98 89 83 85 84 86 89 86 93 89 78 87 93
163 224 212 229 237 238 241 250 284 220 230 225 195 170 172 177 183 188 190 191 183 172 182 180 171 166 158 148 145 144 143 138 134 136 130 123 117 109 107 98 97 99 102 112 107 107 105 102 108
209 247 255 262 268 256 258 250 242 253 253 240 157 160 176 190 194 196 193 188 181 186 190 191 180 173 166 157 156 152 156 156 155 147 145 140 142 146 138 130 119 122 127 136 137 128 123 119 117
197 227 272 267 260 269 251 273 248 255 245 216 187 198 205 202 200 195 190 191 191 195 196 187 189 179 164 163 163 161 163 160 156 157 158 153 153 155 150 150 148 145 144 144 144 140 132 124 116
146 314 310 269 232 240 227 284 241 248 232 226 228 222 210 210 202 201 200 199 197 197 194 195 192 176 167 163 166 163 165 159 162 170 162 159 159 159 158 162 166 169 152 131 113 105 102 105 96
82 49 287 277 208 201 164 259 261 248 202 238 242 236 220 221 213 211 205 199 196 188 188 196 191 177 174 168 166 164 164 166 168 170 166 168 166 160 158 162 172 172 153 141 140 135 113 106 100
44 231 245 282 226 179 192 252 270 254 215 246 250 239 231 235 233 225 213 201 194 191 187 185 184 177 176 170 165 162 164 172 173 172 175 180 176 168 165 171 172 160 152 152 158 133 139 139 123
211 220 241 250 263 190 231 256 273 269 239 245 251 247 238 237 237 222 208 200 190 187 182 179 179 176 170 161 152 154 161 174 175 184 192 187 183 177 170 169 169 160 158 165 157 150 130 138 139
188 207 245 253 273 245 248 262 268 264 253 249 249 243 239 241 241 220 206 194 181 179 175 177 179 178 167 168 173 179 192 192 192 199 196 194 187 181 175 174 172 171 174 182 171 150 140 135 121
221 238 260 285 292 249 273 274 268 254 242 235 233 235 234 241 244 222 209 191 186 185 185 185 183 181 183 185 184 182 176 186 193 197 196 196 193 191 186 177 177 179 176 176 174 156 155 170 158
228 220 232 259 314 312 313 297 277 269 247 249 239 231 227 222 220 211 201 199 192 189 191 189 188 188 186 170 150 128 114 106 187 208 209 209 200 194 190 187 181 183 184 189 189 180 173 185 202
237 222 216 236 304 290 332 292 287 270 281 262 254 239 234 231 216 205 201 204 203 200 192 187 182 181 179 168 173 176 186 200 209 206 209 211 202 196 195 191 189 189 192 196 196 193 189 178 193
219 205 205 218 204 292 262 241 284 289 273 267 253 237 232 225 211 208 206 205 204 194 186 182 172 172 174 175 180 185 200 210 200 192 198 204 208 202 199 195 195 197 198 203 202 194 195 195 195
168 71 49 50 86 266 230 200 278 249 238 264 257 242 232 223 211 211 206 187 186 183 178 173 170 177 175 178 183 192 196 196 193 204 205 211 215 212 208 203 205 206 205 208 210 203 202 203 200
116 110 38 346 322 251 217 211 253 252 235 225 236 237 230 218 202 203 196 189 188 187 182 175 173 182 180 183 190 200 203 198 204 209 208 210 218 222 217 209 211 214 215 213 209 206 210 205 203
189 162 169 200 230 272 256 232 252 259 251 240 238 227 213 212 210 210 205 193 190 196 189 176 180 189 189 192 202 206 205 207 215 213 209 213 221 224 219 214 218 218 214 213 209 210 216 211 213
165 198 186 144 122 275 263 269 295 285 287 280 269 246 232 229 223 214 205 195 187 189 197 190 186 187 193 197 198 206 211 219 224 220 213 218 225 222 216 215 218 222 218 215 208 214 217 215 216
172 154 130 155 182 250 273 259 251 261 259 265 268 250 246 248 241 221 206 197 192 188 188 174 173 182 190 190 199 214 222 224 229 221 217 221 225 224 219 216 217 219 217 212 208 214 215 216 222
166 177 176 168 180 188 257 265 232 222 231 233 244 247 236 226 231 231 219 184 169 158 161 169 171 177 192 201 208 219 233 235 237 238 236 230 226 222 221 220 221 221 221 214 212 215 212 217 224
192 192 174 181 224 206 227 265 279 234 253 234 244 261 269 239 234 215 176 147 154 178 188 191 195 196 219 223 212 227 246 248 252 256 257 254 241 233 228 224 225 227 225 218 216 218 216 218 223